[[{"header":{"parameterUnit":"m.s-1","parameterCategory":1,"la1":30.2991,"la2":30.254,"lo1":-89.0895,"lo2":-89.0444,"dy":0.0017,"dx":0.0017,"nx":28,"ny":28,"refTime":"2025-09-12T21:00:00:Z","depth":0,"parameterNumber":2,"parameterNumberName":"U-component_of_WINDS"},"data":[0,0,0,0,0,0,0,0,0,0,0,0,0,0,0,0,0,0,0,0,0,0,0,0,0,0,0,0,0,0,0,0,0,0,0,0,0,0,0,0,0,0,0,0,0,0,0,0,0,0,0,0,0,0,0,0,0,0,1.0811,1.081,0,1.0689,1.0688,1.0686,1.0555,1.0553,1.0551,1.055,1.0428,1.0426,1.0425,0,0,0,0,0,0,0,0,0,0,0,0,0,1.0937,1.0935,1.0812,1.081,1.0808,1.0689,1.0688,1.0686,1.0556,1.0553,1.0551,1.0549,1.0428,1.0427,1.0425,0,0,0,0,0,0,0,0,0,0,0,0,0,1.0856,1.0935,1.0812,1.0729,1.072,1.069,1.0688,1.0686,1.0556,1.0553,1.055,1.0548,1.0429,1.0427,1.0424,1.0467,0,0,1.0418,1.0417,0,0,0,0,0,0,0,0,1.086,1.0851,1.0743,1.0735,1.0725,1.0634,1.0687,1.0612,1.0557,1.0619,1.055,1.0546,1.0499,1.0491,1.0474,1.0461,1.0456,1.0417,1.0416,1.0415,1.0414,0,0,0,0,0,0,0,1.0866,1.0856,1.0763,1.0741,1.073,1.07,1.0685,1.0672,1.0576,1.0613,1.0603,1.059,1.0494,1.0477,1.047,1.0454,1.0417,1.0415,1.0414,1.0413,1.0473,1.0476,0,0,0,0,0,0,1.0884,1.0861,1.0767,1.0759,1.0787,1.07,1.0683,1.0666,1.0576,1.0559,1.0593,1.0585,1.0482,1.0473,1.0466,1.051,1.0415,1.0413,1.0412,1.047,1.0473,1.0477,0,0,0,0,0,0,1.0887,1.0877,1.0772,1.0808,1.0792,1.07,1.0683,1.0665,1.0648,1.0561,1.0543,1.0593,1.0479,1.0469,1.0468,1.0504,1.0412,1.041,1.0466,1.0471,1.0475,1.06,0,0,0,0,0,0,1.0891,1.0878,1.0892,1.0809,1.0791,1.0775,1.0685,1.0665,1.0644,1.0632,1.0556,1.0541,1.0476,1.0472,1.0466,1.0499,1.0408,1.0463,1.0468,1.0474,1.0592,1.0608,1.0621,0,0,0,0,0,1.0896,1.0932,1.0893,1.0883,1.0805,1.0777,1.0767,1.0691,1.0648,1.0662,1.0606,1.0543,1.0502,1.0473,1.0465,1.0498,1.046,1.0467,1.0473,1.0585,1.0605,1.0621,0,0,0,0,0,0,1.1022,1.0919,1.0875,1.0885,1.0841,1.0755,1.077,1.0714,1.0681,1.0672,1.058,1.0564,1.0575,1.0537,1.0506,1.0536,1.0472,1.0478,1.056,1.0578,1.0592,1.0601,1.0406,0,0,0,0,0,1.1051,1.1035,1.0947,1.0965,1.0945,1.0862,1.0847,1.0793,1.0743,1.0724,1.0668,1.0624,1.0601,1.0587,1.0561,1.0587,1.0569,1.0606,1.0621,1.0634,1.0639,1.0652,1.0668,1.0498,1.0498,1.0498,0,0,1.111,1.1052,1.1048,1.0988,1.0947,1.0935,1.0846,1.0836,1.0827,1.0722,1.0718,1.0676,1.0621,1.0634,1.0637,1.0603,1.0682,1.0642,1.0653,1.0651,1.066,1.0676,1.0691,1.0503,1.0502,1.0501,0,0,1.1211,1.1166,1.1176,1.1138,1.1077,1.1023,1.1026,1.0949,1.0917,1.0911,1.0834,1.0822,1.0784,1.0749,1.0726,1.0819,1.0761,1.0814,1.089,1.0904,1.0917,1.0929,1.0963,1.0976,1.082,1.082,1.082,0,1.1292,1.1269,1.1189,1.1184,1.1161,1.1067,1.1078,1.1045,1.098,1.0968,1.093,1.0882,1.0838,1.0843,1.0866,1.085,1.0852,1.0821,1.0922,1.0932,1.0942,1.0973,1.0986,1.0827,1.0826,1.0825,1.0825,0,1.1373,1.1358,1.1374,1.1314,1.1293,1.1297,1.1219,1.1208,1.1158,1.1108,1.1105,1.105,1.1012,1.101,1.096,1.1008,1.0989,1.0938,1.0871,1.0966,1.0994,1.1006,1.0836,1.0834,1.0832,1.083,0,0,1.1545,1.1444,1.1451,1.1424,1.1352,1.134,1.1342,1.1304,1.1298,1.1258,1.1257,1.1229,1.1183,1.1157,1.1103,1.1115,1.1195,1.1063,1.106,1.109,1.1247,1.1285,1.13,1.1157,1.1158,1.116,1.1251,0,1.1634,1.1628,1.1558,1.1573,1.156,1.1473,1.1474,1.1432,1.1387,1.1371,1.1321,1.1303,1.1243,1.1227,1.1235,1.1183,1.1225,1.1176,1.1156,1.1156,1.1172,1.1314,1.1353,1.1442,1.1262,1.1264,1.1265,0,1.1735,1.1702,1.1715,1.1647,1.1639,1.1641,1.1603,1.1588,1.154,1.1507,1.1481,1.142,1.1419,1.1358,1.1356,1.1324,1.1313,1.1287,1.1288,1.1282,1.1215,1.1312,1.1468,1.1482,1.1281,1.128,1.1279,0,1.186,1.1819,1.1822,1.1802,1.1722,1.1726,1.1693,1.1642,1.1626,1.1593,1.1582,1.1551,1.1534,1.1512,1.1446,1.1407,1.1452,1.1385,1.1426,1.1428,1.1437,1.1437,1.1593,1.1432,1.1432,1.1431,1.1431,0,1.1965,1.1977,1.1878,1.188,1.1892,1.1813,1.1828,1.1787,1.1743,1.1737,1.1661,1.1658,1.1571,1.1559,1.1507,1.1515,1.1507,1.1482,1.1468,1.1488,1.1491,1.1478,1.147,1.1435,1.1434,1.1433,1.1433,0,1.2105,1.2039,1.2037,1.1963,1.1945,1.1958,1.1895,1.1895,1.1847,1.1841,1.1835,1.176,1.1741,1.1674,1.1639,1.1605,1.1629,1.1602,1.1645,1.1636,1.168,1.1677,1.1832,1.1849,1.1678,1.168,1.1681,0,1.2176,1.2183,1.2111,1.2102,1.2072,1.2058,1.2041,1.1966,1.1952,1.19,1.1907,1.1883,1.1859,1.1835,1.1779,1.1753,1.1725,1.1781,1.172,1.1741,1.1726,1.1726,1.1727,1.1794,1.1796,1.1798,1.1799,0,1.2309,1.2277,1.2255,1.2223,1.2206,1.2177,1.2144,1.2141,1.2057,1.2046,1.2027,1.2009,1.1975,1.1952,1.1918,1.1886,1.183,1.182,1.1827,1.1847,1.1872,1.1859,1.168,1.1816,1.1814,1.1813,1.1812,1.1811,1.2415,1.2419,1.237,1.2349,1.2317,1.2289,1.2286,1.2239,1.2221,1.2187,1.2145,1.2131,1.2087,1.2035,1.2008,1.1998,1.1966,1.1978,1.198,1.1984,1.1994,1.1875,1.1991,1.1991,1.199,1.199,1.1989,0,1.2544,1.2509,1.2491,1.2448,1.2433,1.2383,1.2345,1.2336,1.2325,1.2288,1.2267,1.2247,1.2226,1.217,1.2144,1.2147,1.2121,1.2143,1.2141,1.2135,1.2024,1.2019,1.2164,1.2164,1.2164,1.2164,1.2164,1.2164,1.2608,1.2612,1.2576,1.2564,1.2529,1.2515,1.2499,1.2474,1.2444,1.2425,1.2407,1.2371,1.2327,1.2298,1.2278,1.2262,1.2256,1.2287,1.2263,1.2159,1.2143,1.2127,1.2122,1.2286,1.2286,1.2374,1.2375,1.2376]},{"header":{"parameterUnit":"m.s-1","parameterCategory":1,"la1":30.2991,"la2":30.254,"lo1":-89.0895,"lo2":-89.0444,"dy":0.0017,"dx":0.0017,"nx":28,"ny":28,"refTime":"2025-09-12T21:00:00:Z","depth":0,"parameterNumber":3,"parameterNumberName":"V-component_of_WINDS"},"data":[0,0,0,0,0,0,0,0,0,0,0,0,0,0,0,0,0,0,0,0,0,0,0,0,0,0,0,0,0,0,0,0,0,0,0,0,0,0,0,0,0,0,0,0,0,0,0,0,0,0,0,0,0,0,0,0,0,0,0.742,0.7419,0,0.7272,0.727,0.7268,0.7174,0.7173,0.7172,0.7172,0.7009,0.7005,0.7001,0,0,0,0,0,0,0,0,0,0,0,0,0,0.7608,0.7605,0.742,0.7418,0.7417,0.7272,0.727,0.7268,0.7174,0.7173,0.7172,0.7172,0.701,0.7005,0.7001,0,0,0,0,0,0,0,0,0,0,0,0,0,0.7499,0.7604,0.7421,0.7352,0.7345,0.7273,0.727,0.7267,0.7174,0.7173,0.7172,0.7171,0.7011,0.7006,0.7,0.6981,0,0,0.6982,0.698,0,0,0,0,0,0,0,0,0.7506,0.7492,0.7364,0.7357,0.7348,0.7241,0.7276,0.7171,0.7174,0.7238,0.7172,0.7171,0.7086,0.7074,0.7047,0.6973,0.6966,0.6982,0.6978,0.6976,0.6974,0,0,0,0,0,0,0,0.7513,0.7498,0.7361,0.7362,0.7353,0.7324,0.7308,0.7256,0.7168,0.7233,0.7225,0.721,0.7081,0.7053,0.7043,0.6963,0.6982,0.6977,0.6973,0.6971,0.686,0.6861,0,0,0,0,0,0,0.7533,0.7505,0.7366,0.7357,0.7427,0.7322,0.7304,0.7276,0.7168,0.7151,0.7211,0.7206,0.7063,0.705,0.7037,0.7005,0.6976,0.697,0.6967,0.686,0.686,0.6861,0,0,0,0,0,0,0.7538,0.7522,0.7372,0.7429,0.7408,0.732,0.7289,0.7273,0.7246,0.7152,0.7134,0.7199,0.7062,0.7045,0.6995,0.6998,0.6968,0.6963,0.6859,0.686,0.6861,0.6944,0,0,0,0,0,0,0.7544,0.7524,0.752,0.743,0.7405,0.7338,0.7289,0.7271,0.7237,0.723,0.7137,0.712,0.706,0.7004,0.6989,0.699,0.6958,0.6859,0.686,0.6861,0.694,0.6947,0.6953,0,0,0,0,0,0.7551,0.7547,0.752,0.7504,0.7398,0.7338,0.7324,0.7258,0.7238,0.723,0.7169,0.7123,0.7,0.7,0.6982,0.6981,0.6858,0.6859,0.686,0.6937,0.6946,0.6953,0,0,0,0,0,0,0.7637,0.7534,0.7503,0.7471,0.7415,0.7323,0.7312,0.7269,0.7215,0.7209,0.7126,0.7105,0.7064,0.7016,0.7019,0.6954,0.6923,0.6921,0.6988,0.6995,0.7001,0.7014,0.6953,0,0,0,0,0,0.7653,0.7617,0.7527,0.7507,0.7481,0.7401,0.7372,0.7326,0.7263,0.7237,0.7173,0.7109,0.7055,0.7022,0.6967,0.6931,0.6908,0.6921,0.6928,0.6933,0.6933,0.6907,0.6911,0.6865,0.6865,0.6865,0,0,0.7684,0.7624,0.7606,0.7523,0.7474,0.7434,0.7382,0.7342,0.731,0.723,0.7181,0.713,0.7052,0.7009,0.6987,0.6969,0.694,0.6935,0.694,0.6936,0.6909,0.6913,0.6917,0.6866,0.6866,0.6865,0,0,0.7722,0.7674,0.7652,0.7603,0.753,0.7476,0.747,0.7383,0.7348,0.7297,0.7235,0.7192,0.7103,0.705,0.7011,0.7023,0.6978,0.7007,0.7042,0.7017,0.7021,0.7024,0.7027,0.7029,0.7006,0.7007,0.7007,0,0.7771,0.7713,0.7644,0.7609,0.7572,0.7499,0.7473,0.7428,0.7339,0.7313,0.7294,0.7178,0.7121,0.7063,0.7066,0.7037,0.7025,0.7019,0.7027,0.7029,0.703,0.7032,0.7034,0.7011,0.701,0.701,0.7009,0,0.7774,0.7734,0.7724,0.7644,0.7605,0.7575,0.7497,0.7465,0.7421,0.7367,0.7313,0.7241,0.717,0.7152,0.7107,0.7086,0.7077,0.7044,0.7011,0.704,0.704,0.7041,0.7017,0.7015,0.7014,0.7013,0,0,0.7868,0.7747,0.7745,0.7706,0.7617,0.7583,0.7545,0.7479,0.7452,0.7391,0.7356,0.7279,0.7247,0.7202,0.715,0.7128,0.714,0.7096,0.7093,0.7107,0.7109,0.7137,0.7139,0.7108,0.7108,0.7108,0.7116,0,0.7893,0.7829,0.7764,0.772,0.768,0.7607,0.7574,0.7513,0.746,0.7414,0.7353,0.7301,0.7262,0.7235,0.721,0.7145,0.714,0.7143,0.7071,0.707,0.7096,0.7139,0.7169,0.718,0.7115,0.7115,0.7115,0,0.7916,0.7862,0.7816,0.7728,0.7708,0.7681,0.7612,0.757,0.7497,0.7459,0.7409,0.7353,0.7304,0.7274,0.7204,0.7207,0.7172,0.7135,0.7133,0.7126,0.7096,0.7133,0.7182,0.7185,0.7115,0.7115,0.7115,0,0.7989,0.7903,0.7864,0.7833,0.7729,0.7711,0.7666,0.7592,0.7555,0.7492,0.7466,0.7397,0.736,0.7305,0.723,0.7216,0.7166,0.7131,0.7131,0.7133,0.7126,0.7128,0.7172,0.7102,0.7102,0.7102,0.7102,0,0.8026,0.8001,0.7896,0.7872,0.7839,0.776,0.7728,0.7676,0.761,0.757,0.7499,0.7463,0.7365,0.7315,0.7254,0.7204,0.7186,0.7152,0.7137,0.716,0.7164,0.7138,0.7135,0.7102,0.7102,0.7102,0.7102,0,0.8105,0.8033,0.7986,0.7891,0.7866,0.7846,0.7762,0.7733,0.7674,0.7625,0.7608,0.7515,0.7452,0.737,0.728,0.7239,0.7195,0.717,0.7222,0.7213,0.7218,0.7219,0.7247,0.7246,0.7177,0.7178,0.7178,0,0.8135,0.8114,0.8016,0.7987,0.7945,0.7898,0.7859,0.7778,0.774,0.7652,0.7632,0.7564,0.7506,0.7407,0.7328,0.7257,0.7231,0.7245,0.722,0.7243,0.7231,0.7234,0.723,0.7253,0.7254,0.7255,0.7256,0,0.8195,0.8159,0.811,0.8046,0.8003,0.7948,0.7889,0.7867,0.7772,0.7732,0.7669,0.7624,0.7532,0.7463,0.7382,0.7329,0.7275,0.7264,0.726,0.7285,0.7316,0.7299,0.7241,0.7264,0.7264,0.7263,0.7262,0.7262,0.825,0.8227,0.8155,0.81,0.8047,0.7993,0.7961,0.7898,0.7845,0.7767,0.7719,0.7657,0.7576,0.7462,0.7411,0.7356,0.7336,0.7331,0.733,0.733,0.7338,0.7323,0.7341,0.734,0.734,0.734,0.7339,0,0.8307,0.8256,0.8206,0.8128,0.8083,0.8038,0.7969,0.7933,0.7881,0.7813,0.7757,0.7681,0.7613,0.7527,0.7451,0.7424,0.7397,0.7407,0.7409,0.7397,0.736,0.7371,0.743,0.743,0.743,0.743,0.743,0.743,0.8332,0.8291,0.8246,0.8175,0.8121,0.8063,0.8027,0.7975,0.792,0.784,0.7784,0.773,0.7652,0.757,0.7503,0.7479,0.7454,0.7472,0.744,0.7408,0.74,0.7393,0.7403,0.7467,0.7467,0.7482,0.7482,0.7482]}]]